DELTA 1 DEB, 18600

Orbit data source: Space-Track

DELTA 1 DEB, 18600 is space debris in LEO originally from a launch on Thu, 29 Jul 1976 UTC launched from the Air Force Western Test Range (AFWTR). Debris objects in space refer to the collection of defunct objects orbiting the Earth. Examples of debris include non-operational satellites, rocket bodies, and fragments generated from explosions, collisions, or faulty payload assembly.

Loading next visibility...
Identifier
18600, 1976-077FF
Orbit
LEO
Country
Flag of USUS
Related business
Manufacturer
Unknown
Mission
Spacecraft
Bus & Motor
Unknown
Mass
Unknown
Launch date (UTC)
1976-07-29 (49 years ago)
Launch vehicle
Unknown
Launch site
Air Force Western Test Range (AFWTR)
Object type
Payload
Rocket body
Debris
Shape & HBR
Unknown shape, 1.1 m
Radar Cross Section
Medium (>0.1 m² and <1 m²)

Expand to show TLE details & history
Last TLE update: 18 hours ago

TLE from 18 hours ago
0 DELTA 1 DEB
1 18600U 76077FF  25289.08950262 -.00000017  00000-0  23652-3 0  9990
2 18600 102.0455  68.1601 0780189  37.2357  14.1249 10.91634185441565
Epoch: 2025-10-16T02:08Z
TLE epoch observation values (Epoch: 2025-10-16T02:08:53.026Z)
Latitude
52.17493°
Longitude
-4.7874°
Altitude
1,567.845 km
Speed
7.351 km/s
True Right ascension
03h 29m 09s
True Declination
52° 01' 31"
Sunlit
Object was in full shadow at epoch
Visualization orbit readout
Latitude
Unknown
Longitude
Unknown
Altitude
Unknown
Speed
Unknown
Apparent Right ascension
Unknown
Apparent Declination
Unknown
Sunlit
N/A
Visualization observer readout
Local Sidereal Time
14:53:47
Azimuth
Unknown
Elevation
Unknown
Doppler factor
Unknown
Orbital elements
Apogee altitude
2,873.03 km
Perigee altitude
1,533.97 km
Semi-major axis
8,581.637 km
Eccentricity
0.07802
Inclination
102.0455°
RAAN
68.1601°
Arg. of periapsis
37.2357°
True anomaly
16.53276°
Mean anomaly
14.1249°
Eccentric anomaly
15.30482°
Mean motion
2.73016 °/min
Orbital period
131.86 mins
BSTAR
0.00023652
Loading maneuver chart data...
Computing Atmospheric mass density...
Loading historical data...
Loading historical data...
Loading historical data...
Loading historical data...
Loading historical data...
Loading historical data...
Loading historical data...

Documentation

Showing up to 5 results
|